sat.trackr.live / text

‹ back to catalog

STARLINK-4753

NORAD 53845 · 2022-114AD

PAYLOAD ACTIVE UNKNOWN

§ Identity

Operator
Country
US
Launch date
2022-09-19
Launch site
AFETR
Launch vehicle
Mass (kg)
RCS (m²)

Purposes: comms

External: N2YO · Heavens-Above · Gunter

§ Orbital elements

Epoch: 2026-05-24T17:56:42.015264Z

Period
95.44 min
Inclination
53.2135°
Eccentricity
0.0001337
Mean motion
15.08838585 rev/d
Perigee alt
538.8 km
Apogee alt
540.7 km
Semi-major
6,917.9 km
B*
6.1830e-5
RAAN
312.7095°
Arg perigee
98.3411°
Mean anomaly
261.7733°
Rev number
20,445

§ Raw data

STARLINK-47531 53845U 22114AD  26144.74770851  .00000696  00000+0  61830-4 0  99932 53845  53.2135 312.7095 0001337  98.3411 261.7733 15.08838585204458

JSON: /api/v1/satellites/53845 · /tle

For live sub-satellite position, see the globe view (requires WebGL).

§ Visibility from observer

Set your observer location to see the next 7 days of passes ≥ 10°. The values pass through the URL so the page stays shareable.

No JS? Fill the form by hand. The geolocation button needs JavaScript.